sat.trackr.live / text

‹ back to catalog

STARLINK-34788

NORAD 65056 · 2025-165A

PAYLOAD ACTIVE UNKNOWN

§ Identity

Operator
Country
US
Launch date
2025-07-31
Launch site
AFWTR
Launch vehicle
Mass (kg)
RCS (m²)

Purposes: comms

External: N2YO · Heavens-Above · Gunter

§ Orbital elements

Epoch: 2026-09-20T19:45:27.510912Z

Period
93.90 min
Inclination
97.2835°
Eccentricity
0.0002184
Mean motion
15.33486913 rev/d
Perigee alt
463.9 km
Apogee alt
466.9 km
Semi-major
6,843.6 km
B*
6.2336e-4
RAAN
335.0167°
Arg perigee
119.3940°
Mean anomaly
240.7521°
Rev number
6,417

§ Raw data

STARLINK-347881 65056U 25165A   26263.82323508  .00020131  00000+0  62336-3 0  99902 65056  97.2835 335.0167 0002184 119.3940 240.7521 15.33486913 64177

JSON: /api/v1/satellites/65056 · /tle

For live sub-satellite position, see the globe view (requires WebGL).

§ Visibility from observer

Set your observer location to see the next 7 days of passes ≥ 10°. The values pass through the URL so the page stays shareable.

No JS? Fill the form by hand. The geolocation button needs JavaScript.